VTPHVTBU

Guest
Details From VTPH - Hua Hin
To VTBU - Rayon U-Taphao Intl
Flight Number -
Tags generated
Created
Modified
Stats Distance 62 nm / 115 km
Max Altitude 0 ft / 0 m
Waypoints 3
Social Downloads 1
Likes 0
Share VATSIM

Download

Looking for another format? Having issues loading an existing format? Contact us
Advertisement - Login to hide

Notes

Basic altitude profile: - Ascent Rate: 2500ft/min - Ascent Speed: 250kts - Cruise Altitude: 35000ft - Cruise Speed: 420kts - Descent Rate: 1500ft/min - Descent Speed: 250kts Options: - Use NATs: yes - Use PACOTS: yes - Use low airways: yes - Use high airways: yes

Route

VTPH HHN VTBU

ID Type Via Altitude (ft/m) Position (lat/lon) Dist (leg/tot) Name
O VTPH APT - 0 / 0 12.63620 / 99.95150 - / 0 nm Hua Hin
HHN VOR - 0 / 0 12.63450 / 99.95120 0 / 0 nm HUA
O VTBU APT - 0 / 0 12.68000 / 101.00500 61 / 61 nm Rayon U-Taphao Intl

Altitude Profile

Advertisement - Login to hide

VTPH

Details ICAO VTPH (HHQ)
Name Hua Hin
Region Thailand
Timezone Asia/Bangkok (UTC+7.0)
Stats Elevation 62 ft / 19 m (AMSL)
Location 12.636200° 99.951500°
Runways 1
Magnetic Variation 0.512° W

METAR

VTPH 140000Z VRB01KT 9000 FEW030 25/24 Q1009 NOSIG

Decode

TAF

TAF VTPH 132300Z 1400/1424 00000KT 9999 FEW030 BECMG 1402/1404 08005KT BECMG 1414/1416 00000KT

Decode

Departure Runways

ID Width Length Bearing (true/mag) Surface Threshold Overrun Markings Lighting
16 115 ft / 35 m 6,935 ft / 2,114 m 159.78° / 160.29° ASPHALT 0 ft / 0 m 197 ft / 60 m APP EDGE THRESHOLD
34 115 ft / 35 m 6,935 ft / 2,114 m 339.78° / 340.30° ASPHALT 492 ft / 150 m 95 ft / 29 m APP EDGE THRESHOLD

VTBU

Details ICAO VTBU (UTP)
Name Rayon U-Taphao International Airport
Region Thailand
Timezone Asia/Bangkok (UTC+7.0)
Stats Elevation 59 ft / 18 m (AMSL)
Location 12.679800° 101.005000°
Runways 1
Magnetic Variation 0.515° W

METAR

VTBU 140000Z 01002KT 3000 BR FEW020CB SCT100 26/25 Q1009 NOSIG

Decode

TAF

TAF VTBU 132300Z 1400/1423 04004KT 6000 FEW020 BECMG 1403/1405 16003KT TEMPO1406/1411 FEW020CB

Decode

Destination Runways

ID Width Length Bearing (true/mag) Surface Threshold Overrun Markings Lighting
18 197 ft / 60 m 11,510 ft / 3,508 m 184.60° / 185.11° ASPHALT 0 ft / 0 m 1,030 ft / 314 m PREC-APP CENTERLINE EDGE THRESHOLD SALS
36 197 ft / 60 m 11,510 ft / 3,508 m 4.60° / 5.11° ASPHALT 0 ft / 0 m 1,053 ft / 321 m PREC-APP CENTERLINE EDGE THRESHOLD SALS

Approach Navaids

Runway Type Ident Frequency Range Bearing (true/mag) Slope Elevation
18 DME IBUT 111.10 MHz 18 nm / 33 km - - 59 ft / 18 m (AMSL)
18 LOC-ILS IBUT 111.10 MHz 18 nm / 33 km 184.62° / 185.13 ° - 24 ft / 7 m (AMSL)
18 GS IBUT 111.10 MHz 10 nm / 19 km 185.25° / 185.76 ° 3.00° 59 ft / 18 m (AMSL)

Popular Alternatives